Location: Unspecified
(40.7945°N, 111.1337°W)
Time: 21:14:37
(UTC-06:00)

Vanguard 1 - Pass Details

Date: 30 June 2019
Orbit: 653 x 3830 km, 34.3° (Epoch: 22 July)

Event Time Altitude Azimuth Distance (km) Brightness Sun altitude
Rises 04:19:18 0° 263° (W) 7,899 14.2 -14.7°
Reaches altitude 10° 04:25:02 10° 261° (W) 6,690 13.8 -14.0°
Maximum altitude 04:45:20 68° 185° (S) 2,706 12.1 -11.4°
Drops below altitude 10° 04:56:39 10° 105° (ESE) 3,998 13.6 -9.8°
Sets 04:59:10 0° 103° (ESE) 4,677 14.1 -9.5°
